ONEWEB-0176, 48210

Orbit data source: Space-Track

ONEWEB-0176, 48210 is a payload satellite owned by One Web (NAA) (UK) in LEO that was launched on Sun, 25 Apr 2021 UTC via a SOYUZ-2-1B launch vehicle from the Vostochny Cosmodrome (VOSTO). Payload-class satellites include a variety of spacecraft equipped with specific instruments for various scientific and technological missions. These include communications satellites like Starlink; space stations such as the ISS; scientific satellites like the Hubble; Earth observation satellites from companies like Planet Labs, Umbra, and HawkEye 360; GPS; miniature CubeSats for education and research; and military/defense satellites.

Loading next visibility...
Identifier
48210, 2021-031A
Orbit
LEO
Country
Flag of UKUK
Related business
Manufacturer
One Web
Mission
Operational Commercial Communications
Bus & Motor
ARROW, Unknown motor
Mass
148 kg wet, ~140 kg dry
Launch date (UTC)
2021-04-25 (5 years ago)
Launch vehicle
SOYUZ-2-1B
Launch site
Vostochny Cosmodrome (VOSTO)
Object type
Payload
Rocket body
Debris
Shape & HBR
Trap Box + 2 Pan, 6.7 m
Radar Cross Section
3.464 m², Large (>1 m²)

Expand to show TLE details & history
Last TLE update: 1 day ago

TLE from 1 day ago
0 ONEWEB-0176
1 48210U 21031A   25305.51069604 -.00000064  00000-0 -20816-3 0  9990
2 48210  87.9006 335.0585 0002019  95.6417 264.4943 13.14501525218404
Epoch: 2025-11-01T12:15Z
TLE epoch observation values (Epoch: 2025-11-01T12:15:24.137Z)
Latitude
-0.00004°
Longitude
110.16819°
Altitude
1,208.836 km
Speed
7.25 km/s
True Right ascension
22h 20m 14s
True Declination
0° 00' 00"
Sunlit
Object was in daylight at epoch
Visualization orbit readout
Latitude
Unknown
Longitude
Unknown
Altitude
Unknown
Speed
Unknown
Apparent Right ascension
Unknown
Apparent Declination
Unknown
Sunlit
N/A
Visualization observer readout
Local Sidereal Time
09:14:10
Azimuth
Unknown
Elevation
Unknown
Doppler factor
Unknown
Orbital elements
Apogee altitude
1,204.439 km
Perigee altitude
1,201.378 km
Semi-major axis
7,581.046 km
Eccentricity
0.0002
Inclination
87.9006°
RAAN
335.0585°
Arg. of periapsis
95.6417°
True anomaly
264.47127°
Mean anomaly
264.4943°
Eccentric anomaly
264.48279°
Mean motion
3.28813 °/min
Orbital period
109.48 mins
BSTAR
-0.00020816
Loading maneuver chart data...
Computing Atmospheric mass density...
Loading historical data...
Loading historical data...
Loading historical data...
Loading historical data...
Loading historical data...
Loading historical data...
Loading historical data...

Documentation

Showing up to 5 results
|